Probability
0 0 0 0 0 0 0 0 0 1 2 1 3 8 11 16 20 23 29 34 36 35 34 34 32 30 27 25 26 29 32 32 30 29 29 29 28 25 24 23 23 23 23 23
0 0 0 0 0 0 0 0 1 2 3 2 5 11 16 19 23 25 28 32 36 35 33 32 32 33 31 27 28 30 32 32 31 29 29 28 26 25 24 23 23 23 22 21
0 0 0 0 1 1 1 2 3 4 5 7 9 14 20 23 26 27 28 31 35 35 35 35 34 35 34 30 29 30 30 30 30 28 25 23 23 23 23 23 23 21 21 20
0 0 0 1 2 3 3 3 4 7 10 12 14 17 21 25 28 29 30 32 35 37 40 39 36 35 35 32 28 27 27 27 27 24 21 20 20 21 21 21 21 19 19 20
0 0 0 1 3 4 3 3 4 8 12 16 19 20 23 27 29 29 31 35 36 39 42 41 36 34 35 32 28 27 28 28 25 22 20 20 21 20 20 20 19 17 16 16
0 0 0 2 5 5 5 5 7 10 14 19 22 24 28 31 30 30 34 37 37 38 41 40 36 33 33 31 30 29 30 29 25 22 22 22 22 21 20 20 19 16 14 13
0 0 1 4 6 7 8 9 12 15 17 20 23 26 31 33 31 33 37 38 35 36 38 38 36 34 32 33 32 29 27 26 24 23 22 22 22 22 22 21 19 18 16 14
1 1 2 5 8 9 11 12 13 16 18 20 23 27 30 31 30 33 37 35 32 33 36 36 36 34 33 34 32 26 22 21 23 24 23 21 22 24 23 21 19 20 20 18
2 2 3 5 8 11 12 12 13 15 17 19 22 26 28 27 28 31 33 30 28 30 33 34 34 33 31 30 28 25 21 22 24 27 26 25 24 22 21 20 19 20 21 20
4 4 4 6 9 12 13 14 15 16 18 20 22 25 27 28 28 27 27 25 24 25 28 30 31 29 25 23 24 23 22 23 26 28 28 28 26 21 19 19 18 19 19 19
5 5 6 7 10 13 14 16 18 19 21 23 25 26 27 28 25 22 21 20 20 20 22 26 26 24 21 20 21 20 19 21 24 25 25 26 25 21 17 15 15 14 15 14
5 6 7 8 10 13 14 16 18 19 21 24 25 25 25 24 21 18 16 16 15 16 20 23 22 19 19 18 18 16 14 16 18 18 19 19 19 17 13 9 8 7 8 9
6 6 7 8 9 10 11 12 13 14 17 21 22 21 20 19 17 16 14 12 11 14 18 19 17 16 17 16 14 12 11 12 15 15 14 13 13 13 11 8 5 3 3 3
6 7 7 8 8 8 9 9 8 9 13 17 17 15 14 14 14 14 13 10 9 11 13 13 12 14 15 14 13 11 10 11 13 14 13 11 10 10 10 10 8 5 3 1
6 6 6 8 9 9 9 9 8 9 12 13 11 10 10 9 9 9 9 8 7 8 8 8 10 11 12 12 11 11 10 10 12 13 12 11 9 9 9 10 9 8 6 4
6 6 6 8 9 10 10 10 10 10 11 9 7 6 6 6 7 6 6 6 5 5 5 6 7 8 8 8 9 9 9 8 9 11 11 10 9 8 7 8 7 6 5 4
6 6 7 8 9 8 9 9 10 10 9 6 4 3 3 4 5 6 5 4 3 3 4 5 6 6 6 6 6 6 7 7 7 9 10 10 9 7 5 5 5 3 2 2
4 5 6 7 6 6 6 7 8 8 6 3 1 1 1 1 3 5 4 2 2 3 4 4 5 5 6 6 5 5 5 5 6 9 9 8 6 4 2 2 2 1 1 2
3 3 4 4 4 4 4 5 6 4 2 1 0 0 0 0 1 2 2 1 1 2 3 3 3 5 6 5 4 4 4 4 6 8 7 5 3 3 2 2 1 1 3 4
3 3 3 3 3 3 4 5 5 2 1 0 0 0 0 0 0 1 1 1 1 1 2 1 1 3 3 3 2 2 2 3 5 6 5 3 3 3 3 2 2 2 2 3
3 3 3 3 3 4 5 5 4 3 2 1 0 0 0 0 0 1 1 1 1 1 0 1 1 1 1 1 0 0 1 2 4 5 4 3 3 3 3 1 1 1 1 1
3 3 3 3 4 5 6 4 3 3 2 1 0 0 0 0 0 1 1 0 0 0 0 0 0 0 0 0 0 0 0 1 2 4 4 4 3 3 2 1 0 0 0 0
3 3 3 4 5 6 5 4 3 3 2 1 0 0 0 0 0 0 0 0 0 0 0 0 0 0 0 0 0 0 0 1 2 3 4 4 3 2 1 0 0 0 0 0
3 3 4 5 5 5 4 3 3 4 3 1 0 0 0 0 0 0 0 0 0 0 0 0 0 0 0 0 0 0 0 1 2 3 3 3 2 1 0 0 0 0 0 0
3 3 3 4 4 4 3 2 3 4 3 2 1 1 1 1 1 1 1 1 0 0 0 0 0 0 0 0 0 0 0 1 1 1 1 2 1 0 0 0 0 0 0 0
2 2 2 2 2 2 1 1 1 1 1 1 1 2 2 2 2 2 2 2 1 0 0 0 0 0 0 0 0 0 0 0 0 0 1 2 1 0 0 0 0 0 0 0
1 1 1 1 1 1 0 0 0 0 0 0 1 2 3 3 3 3 3 3 2 1 0 1 1 1 0 0 0 0 0 0 0 1 2 2 1 0 0 0 0 0 0 0
Wind_Speed
11 8 8 11 11 11 12 12 12 10 9 6 3 3 2 2 3 4 4 4 4 4 4 4 5 6 5 5 5 5 5 5 5 4 4 4 4 4 4 4 4 4 4 4
11 10 10 11 11 12 13 12 12 11 9 4 2 2 2 3 4 4 4 4 4 4 4 4 5 6 5 5 5 5 5 5 4 4 4 3 3 3 3 4 4 4 4 4
10 9 10 13 11 12 11 10 11 11 6 2 3 2 3 3 4 4 4 4 5 4 4 4 4 5 6 5 5 5 5 5 4 4 4 3 3 3 3 4 3 4 4 4
9 8 14 4 1 6 8 8 7 6 4 4 3 2 3 3 3 3 4 4 4 4 4 3 3 4 5 5 5 5 5 5 4 4 4 4 3 3 3 3 3 3 4 4
9 12 13 7 3 4 7 8 5 5 4 3 1 3 3 1 1 2 2 2 3 3 3 3 3 3 4 5 5 5 5 5 4 5 5 4 3 3 3 3 3 3 3 3
10 12 12 3 3 1 6 8 1 3 3 3 3 6 0 2 1 2 1 1 2 2 2 2 2 3 5 5 5 5 4 5 4 5 4 4 4 3 3 3 3 4 3 4
12 12 8 3 1 4 9 1 3 3 3 4 4 4 3 2 2 1 1 1 2 2 2 2 2 3 4 4 4 4 4 4 4 5 5 4 4 4 3 3 3 4 4 4
8 11 5 4 1 3 4 4 4 4 4 3 3 2 2 1 1 1 1 1 2 2 2 2 3 3 4 4 4 3 3 4 4 4 4 4 4 4 4 4 4 4 4 4
4 2 3 2 3 3 4 4 4 4 3 3 2 3 2 1 1 1 1 1 2 2 2 2 2 3 3 3 3 3 3 3 3 4 4 4 4 5 5 5 4 4 3 4
5 3 3 4 3 4 5 5 5 4 3 3 3 3 2 2 1 1 1 1 2 2 2 2 2 2 2 2 3 3 3 3 3 4 5 4 4 5 4 4 4 4 4 4
7 5 5 4 4 5 5 5 4 3 3 3 3 2 2 1 1 2 2 1 2 2 2 2 2 2 2 2 3 3 3 3 3 4 3 4 4 3 4 3 3 4 4 4
6 4 6 6 6 6 5 5 4 3 3 2 2 2 2 1 2 2 1 1 1 2 2 2 1 2 1 2 3 3 3 3 3 3 3 3 3 3 2 3 3 4 5 5
6 6 7 7 6 5 4 4 3 3 2 2 2 2 2 1 1 1 1 1 1 2 1 1 2 2 2 2 3 3 3 3 3 3 3 4 4 4 3 3 5 6 6 5
6 6 6 5 5 4 3 3 2 1 1 1 1 1 2 1 1 1 1 1 2 1 1 2 2 2 2 3 3 3 4 3 4 3 4 3 4 4 4 4 3 3 5 7
5 6 5 4 3 3 2 2 1 1 0 0 1 1 2 1 1 1 1 1 1 1 1 2 2 2 2 3 3 3 3 3 3 3 4 3 4 4 4 4 3 3 2 3
4 3 3 3 2 2 2 2 1 1 1 0 0 0 1 2 2 1 1 1 1 1 2 2 2 2 2 2 3 3 3 2 3 4 4 3 3 3 3 3 3 3 3 2
3 2 2 2 1 1 1 1 1 1 1 0 0 1 1 1 1 1 1 1 1 2 2 2 2 2 2 2 3 3 3 2 3 5 4 3 3 3 3 3 3 2 2 1
3 2 2 1 1 1 1 1 1 1 0 0 1 1 1 1 1 2 2 2 1 2 2 2 2 2 3 3 3 3 3 3 3 3 3 3 3 4 3 3 3 3 2 1
2 1 1 1 1 1 1 1 1 1 0 1 1 1 1 1 2 2 2 2 2 2 2 2 2 3 3 2 3 3 4 4 3 3 3 2 3 3 3 3 3 2 2 1
1 1 2 1 1 1 1 1 1 1 1 0 0 0 1 1 2 2 2 2 2 2 2 2 3 3 3 2 4 4 4 4 3 3 3 3 2 2 3 3 2 2 2 2
1 1 1 1 1 2 2 1 1 1 2 1 1 1 1 1 2 2 2 2 1 2 2 1 2 3 3 3 4 3 3 3 2 2 2 3 2 2 2 1 1 1 1 1
1 1 1 1 1 2 2 1 1 1 2 1 2 2 2 2 2 2 1 1 1 1 2 1 2 3 4 4 3 2 2 2 2 1 2 2 2 2 1 1 1 1 1 1
2 1 1 1 1 2 2 2 1 1 1 1 2 2 2 3 2 2 1 0 0 1 2 2 4 5 5 3 1 1 1 2 2 2 2 1 1 1 1 2 1 1 1 1
2 2 2 2 2 2 2 2 2 1 0 1 1 1 2 1 1 1 1 1 1 1 1 3 3 2 3 2 1 1 1 2 2 2 2 2 1 1 2 2 1 1 1 2
1 1 2 2 2 2 1 1 0 0 0 0 0 1 1 1 1 1 1 1 1 1 1 1 2 2 3 2 2 2 2 2 2 3 2 2 2 2 2 2 2 2 2 1
1 1 2 2 2 2 2 1 1 1 1 1 1 1 1 1 1 0 0 0 1 1 1 1 1 2 2 2 2 2 3 1 1 2 2 2 2 2 2 2 2 2 1 1
1 1 1 1 1 1 1 1 1 2 2 2 1 1 1 1 1 1 1 1 1 1 1 1 1 1 1 2 2 2 2 2 2 2 2 1 1 2 2 2 2 2 2 1
Wind_Direction
258 258 254 246 239 235 241 256 267 270 268 277 277 268 258 216 199 197 190 194 183 176 174 181 179 176 179 180 180 182 184 190 194 198 199 204 208 213 219 229 235 240 246 249
245 244 246 250 243 239 242 248 255 263 266 289 279 264 244 228 214 212 206 201 188 178 179 185 184 182 180 185 183 183 186 188 188 194 197 202 207 213 221 231 237 238 244 246
247 239 246 243 237 236 237 242 254 260 278 310 275 275 265 253 229 221 216 207 196 185 185 187 189 185 182 182 182 179 180 182 187 190 194 204 215 216 225 234 237 241 247 250
250 238 244 252 255 247 248 251 257 269 288 289 296 280 268 260 243 220 213 206 200 195 182 182 191 187 181 176 181 184 186 190 194 199 202 203 211 221 237 247 249 248 248 253
245 243 249 228 203 229 243 242 244 256 267 271 265 237 213 173 256 239 226 217 210 205 188 175 179 179 178 181 184 191 192 194 199 206 210 210 217 227 237 241 242 245 244 247
238 250 254 239 118 242 249 234 197 274 270 254 237 256 79 45 305 273 251 217 196 178 163 161 167 184 188 185 189 197 201 201 202 207 211 214 221 231 236 238 240 245 243 245
239 245 250 46 67 216 237 248 29 334 300 265 258 310 357 341 315 286 236 194 175 165 163 159 175 189 195 188 197 205 209 208 206 206 210 214 222 227 234 234 237 245 247 244
238 244 240 71 195 259 346 4 335 321 302 282 285 314 301 293 276 256 215 183 181 174 168 170 193 199 196 191 198 200 207 211 213 217 224 210 219 229 231 236 232 234 242 250
268 291 28 335 315 335 321 307 306 303 300 277 260 265 265 256 235 232 230 204 196 189 187 196 214 215 202 194 196 195 203 213 219 220 228 229 228 229 231 231 245 250 254 259
263 260 296 289 300 310 308 306 301 292 281 258 254 263 266 254 234 230 219 209 209 204 197 209 223 222 204 199 196 198 207 215 226 229 229 229 239 237 241 242 249 256 262 268
256 270 280 267 296 310 310 308 298 283 270 263 249 248 250 256 259 257 254 248 240 234 228 227 217 208 206 192 197 209 217 225 235 239 242 245 245 263 261 263 270 270 278 277
262 282 286 290 296 298 297 307 308 285 263 250 236 216 210 222 250 251 253 274 269 254 240 230 210 202 214 207 209 223 231 240 248 250 244 247 244 242 234 245 224 227 254 272
283 289 288 287 289 289 289 302 309 298 273 241 226 203 188 195 221 238 239 257 266 268 261 249 231 231 234 233 226 235 251 259 265 264 254 255 258 258 260 235 212 216 220 224
277 274 271 275 281 280 281 293 300 299 257 208 197 193 190 188 193 216 232 243 258 268 279 270 262 257 246 236 236 240 251 253 264 265 267 268 268 267 265 272 268 248 210 207
277 271 273 278 272 264 252 240 224 206 179 186 197 202 207 212 211 210 216 232 235 226 249 260 262 264 256 246 241 249 256 260 265 271 265 266 270 272 274 274 275 280 278 205
306 285 264 254 246 237 210 194 185 145 131 125 165 222 231 234 230 232 229 212 224 241 257 262 265 266 249 247 250 252 255 269 274 272 266 261 262 269 274 280 282 279 276 280
285 279 261 247 202 167 134 107 102 105 111 126 260 255 240 236 265 268 271 272 269 263 261 270 281 281 262 251 255 261 265 247 237 258 265 272 273 273 272 273 278 282 286 350
295 300 310 330 116 123 110 102 98 93 79 238 239 254 260 259 258 253 263 278 281 278 288 299 304 285 266 259 262 265 256 252 246 254 264 267 274 274 276 277 278 284 291 200
327 340 1 31 80 92 86 52 14 10 355 214 211 239 265 268 262 263 277 278 275 275 296 319 313 280 278 278 271 247 249 249 251 259 263 257 256 265 273 276 281 290 297 304
38 38 31 34 31 41 43 32 10 0 357 353 127 260 282 286 279 273 268 275 299 325 333 330 294 285 284 281 269 256 250 252 252 256 256 257 258 267 270 270 273 283 285 280
46 54 56 37 12 7 3 349 347 354 357 357 310 293 301 307 296 278 270 283 342 355 342 320 290 301 302 304 258 266 262 263 265 264 263 258 255 253 259 269 280 285 293 301
10 40 40 11 1 2 351 345 1 11 11 5 346 341 331 318 308 300 292 311 344 350 302 306 330 1 341 295 258 268 279 285 285 286 274 266 269 276 276 278 273 271 274 278
19 28 27 12 2 360 355 7 15 21 11 332 327 323 321 325 320 312 305 343 295 346 306 1 26 23 342 291 275 282 293 296 301 295 281 273 287 291 276 266 270 277 270 277
34 38 41 38 33 26 14 11 21 32 17 299 320 325 314 307 308 305 344 79 43 341 315 56 52 13 297 294 331 332 323 318 311 303 296 294 289 279 277 270 263 256 265 282
23 26 30 17 10 16 25 20 50 84 205 89 15 323 306 323 326 332 347 62 106 236 272 128 169 242 267 301 316 328 317 322 319 312 302 299 296 295 286 277 269 269 272 277
344 353 355 345 346 324 314 324 334 333 328 344 0 350 17 48 26 3 278 223 184 223 277 284 205 222 270 308 322 317 312 305 249 259 281 288 294 300 299 301 300 293 295 300
297 298 281 296 300 308 325 342 339 330 332 329 330 348 351 343 326 339 318 283 263 244 262 277 291 303 320 321 314 314 311 309 311 312 303 305 319 320 316 309 309 311 303 291